Location: Heilwood
(40.6210°N, 78.9150°W)
Time: 13:40:11
(UTC-05:00)

BREEZE-M DEB (TANK) - Visible Passes

Search period start: 05 March 2015 00:00
Search period end: 15 March 2015 01:00
Orbit: 323 x 15966 km, 49.5° (Epoch: 04 March)

Date Brightness Start Highest point End Pass type
(mag) Time Alt. Az. Time Alt. Az. Time Alt. Az.
05 Mar 5.6 01:43:33 64° NNE 01:43:33 64° NNE 02:21:30 10° ENE visible
06 Mar 5.5 01:54:55 66° N 01:54:55 66° N 02:39:27 10° ENE visible
07 Mar 5.5 02:06:15 65° NNW 02:06:47 65° N 02:58:28 10° E visible
08 Mar 5.5 03:17:34 61° NNW 03:19:22 64° N 04:18:38 10° E visible
09 Mar 5.6 03:28:51 55° NW 03:32:00 64° N 04:39:54 10° E visible
10 Mar 5.7 03:40:06 48° NW 03:44:41 65° N 05:01:58 10° E visible
11 Mar 5.8 03:51:21 42° NW 03:57:23 66° N 05:24:19 10° ESE visible
12 Mar 6.0 04:02:33 36° WNW 04:10:07 67° NNE 05:46:21 10° ESE visible
12 Mar 6.9 23:23:29 12° ENE 23:23:29 12° ENE 23:24:28 10° ENE visible
13 Mar 6.1 04:13:43 30° WNW 04:22:53 69° NNE 06:07:34 10° ESE visible
13 Mar 6.8 23:34:39 15° ENE 23:34:39 15° ENE 23:37:38 10° ENE visible
14 Mar 6.2 04:24:52 25° WNW 04:35:39 72° NNE 06:27:42 10° ESE visible
14 Mar 6.6 23:45:46 19° ENE 23:45:46 19° ENE 23:50:49 10° ENE visible
